• In Österreich
  • Länderverzeichnis
  • Für 7 Tage
  • Wassertemperatur
  • Satellitenkarten
  • Wetterkarte
  • News
  • Widgets
  • user-avatar
    Anmelden

    Stündliche Wetter Bindura

    Heute, 17 Dezember, Sonntag

    Zeit Temperatur Niederschläge Wind Luftdruck Luftfeuchtigkeit
    00:00 +18°C° 0 mm 0 m/S 669 mmHg 92%
    01:00 +18°C° 0 mm 0 m/S 669 mmHg 93%
    02:00 +17°C° 0 mm 0 m/S 669 mmHg 93%
    03:00 +17°C° 0 mm 0 m/S 669 mmHg 94%
    04:00 +17°C° 0 mm 0 m/S 669 mmHg 95%
    05:00 +16°C° 0 mm 0 m/S 669 mmHg 95%
    06:00 +18°C° 0 mm 0 m/S 669 mmHg 88%
    07:00 +22°C° 0 mm 1 m/S 670 mmHg 81%
    08:00 +24°C° 0 mm 1 m/S 670 mmHg 74%
    09:00 +25°C° 0 mm 1 m/S 670 mmHg 67%
    10:00 +27°C° 0 mm 2 m/S 670 mmHg 59%
    11:00 +29°C° 0 mm 2 m/S 671 mmHg 52%
    12:00 +29°C° 0 mm 2 m/S 670 mmHg 51%
    13:00 +30°C° 0 mm 2 m/S 669 mmHg 49%
    14:00 +30°C° 0 mm 2 m/S 669 mmHg 47%
    15:00 +30°C° 0 mm 2 m/S 668 mmHg 49%
    16:00 +29°C° 0 mm 2 m/S 667 mmHg 51%
    17:00 +29°C° 0 mm 2 m/S 667 mmHg 53%
    18:00 +27°C° 0 mm 2 m/S 667 mmHg 59%
    19:00 +26°C° 0 mm 1 m/S 667 mmHg 64%
    20:00 +24°C° 0 mm 1 m/S 667 mmHg 70%
    21:00 +24°C° 0 mm 1 m/S 667 mmHg 72%
    22:00 +23°C° 0 mm 1 m/S 668 mmHg 75%
    23:00 +23°C° 0 mm 1 m/S 668 mmHg 77%

    Morgen, 18 Dezember, Montag

    Zeit Temperatur Niederschläge Wind Luftdruck Luftfeuchtigkeit
    00:00 +22°C° 0 mm 1 m/S 668 mmHg 79%
    01:00 +22°C° 0 mm 1 m/S 668 mmHg 81%
    02:00 +21°C° 0 mm 1 m/S 667 mmHg 82%
    03:00 +21°C° 0 mm 1 m/S 667 mmHg 83%
    04:00 +20°C° 0 mm 1 m/S 667 mmHg 84%
    05:00 +20°C° 0 mm 1 m/S 667 mmHg 85%
    06:00 +22°C° 0 mm 1 m/S 668 mmHg 79%
    07:00 +23°C° 0 mm 1 m/S 668 mmHg 73%
    08:00 +25°C° 0 mm 1 m/S 669 mmHg 67%
    09:00 +27°C° 0 mm 2 m/S 669 mmHg 61%
    10:00 +28°C° 0 mm 2 m/S 669 mmHg 54%
    11:00 +30°C° 0 mm 2 m/S 669 mmHg 48%
    12:00 +31°C° 0 mm 2 m/S 668 mmHg 45%
    13:00 +32°C° 0 mm 2 m/S 668 mmHg 42%
    14:00 +34°C° 0 mm 2 m/S 667 mmHg 39%
    15:00 +32°C° 0 mm 2 m/S 666 mmHg 41%
    16:00 +32°C° 0 mm 2 m/S 666 mmHg 43%
    17:00 +31°C° 0 mm 2 m/S 665 mmHg 45%
    18:00 +29°C° 0 mm 2 m/S 665 mmHg 50%
    19:00 +27°C° 0 mm 2 m/S 666 mmHg 56%
    20:00 +26°C° 0 mm 1 m/S 666 mmHg 62%
    21:00 +25°C° 0,1 mm 1 m/S 666 mmHg 64%
    22:00 +24°C° 0,1 mm 1 m/S 667 mmHg 67%
    23:00 +24°C° 0,1 mm 1 m/S 667 mmHg 69%

    übermorgen, 19 Dezember, Dienstag

    Zeit Temperatur Niederschläge Wind Luftdruck Luftfeuchtigkeit
    00:00 +23°C° 0 mm 1 m/S 667 mmHg 71%
    01:00 +23°C° 0 mm 1 m/S 666 mmHg 74%
    02:00 +22°C° 0 mm 1 m/S 666 mmHg 76%
    03:00 +22°C° 0 mm 1 m/S 666 mmHg 81%
    04:00 +21°C° 0 mm 1 m/S 666 mmHg 86%
    05:00 +19°C° 0 mm 0 m/S 666 mmHg 92%
    06:00 +22°C° 0 mm 1 m/S 667 mmHg 85%
    07:00 +24°C° 0 mm 1 m/S 667 mmHg 78%
    08:00 +26°C° 0 mm 2 m/S 668 mmHg 71%
    09:00 +27°C° 0,3 mm 2 m/S 668 mmHg 65%
    10:00 +29°C° 0,3 mm 2 m/S 668 mmHg 58%
    11:00 +31°C° 0,3 mm 2 m/S 668 mmHg 51%
    12:00 +32°C° 0 mm 2 m/S 667 mmHg 48%
    13:00 +32°C° 0 mm 2 m/S 667 mmHg 44%
    14:00 +34°C° 0 mm 2 m/S 666 mmHg 41%
    15:00 +34°C° 0 mm 2 m/S 666 mmHg 42%
    16:00 +32°C° 0 mm 2 m/S 666 mmHg 44%
    17:00 +32°C° 0 mm 2 m/S 665 mmHg 46%
    18:00 +30°C° 0,2 mm 2 m/S 665 mmHg 53%
    19:00 +28°C° 0,2 mm 2 m/S 666 mmHg 60%
    20:00 +26°C° 0,2 mm 2 m/S 666 mmHg 67%
    21:00 +25°C° 1,6 mm 2 m/S 666 mmHg 74%
    22:00 +24°C° 1,6 mm 2 m/S 666 mmHg 80%
    23:00 +23°C° 1,6 mm 2 m/S 667 mmHg 87%

    20 Dezember, Mittwoch

    Zeit Temperatur Niederschläge Wind Luftdruck Luftfeuchtigkeit
    00:00 +23°C° 0,6 mm 1 m/S 667 mmHg 88%
    01:00 +23°C° 0,6 mm 1 m/S 666 mmHg 89%
    02:00 +23°C° 0,6 mm 1 m/S 666 mmHg 90%
    03:00 +23°C° 0,3 mm 1 m/S 666 mmHg 90%
    04:00 +23°C° 0,3 mm 1 m/S 666 mmHg 91%
    05:00 +22°C° 0,3 mm 1 m/S 667 mmHg 92%
    06:00 +24°C° 0,4 mm 1 m/S 667 mmHg 86%
    07:00 +25°C° 0,4 mm 1 m/S 668 mmHg 81%
    08:00 +26°C° 0,4 mm 1 m/S 668 mmHg 76%
    09:00 +27°C° 0,7 mm 1 m/S 668 mmHg 70%
    10:00 +28°C° 0,7 mm 2 m/S 668 mmHg 65%
    11:00 +29°C° 0,7 mm 2 m/S 668 mmHg 60%
    12:00 +30°C° 1,1 mm 2 m/S 668 mmHg 59%
    13:00 +30°C° 1,1 mm 2 m/S 667 mmHg 58%
    14:00 +30°C° 1,1 mm 1 m/S 667 mmHg 57%
    15:00 +30°C° 1,5 mm 2 m/S 667 mmHg 61%
    16:00 +29°C° 1,5 mm 2 m/S 666 mmHg 65%
    17:00 +28°C° 1,5 mm 2 m/S 666 mmHg 69%
    18:00 +27°C° 1 mm 2 m/S 667 mmHg 73%
    19:00 +25°C° 1 mm 2 m/S 667 mmHg 78%
    20:00 +24°C° 1 mm 1 m/S 667 mmHg 83%
    21:00 +24°C° 0,6 mm 1 m/S 668 mmHg 84%
    22:00 +24°C° 0,6 mm 1 m/S 668 mmHg 85%
    23:00 +23°C° 0,6 mm 1 m/S 668 mmHg 87%

    21 Dezember, Donnerstag

    Zeit Temperatur Niederschläge Wind Luftdruck Luftfeuchtigkeit
    00:00 +23°C° 0,2 mm 1 m/S 668 mmHg 87%
    01:00 +23°C° 0,2 mm 1 m/S 668 mmHg 88%
    02:00 +23°C° 0,2 mm 1 m/S 667 mmHg 89%
    03:00 +23°C° 0,2 mm 1 m/S 668 mmHg 90%
    04:00 +22°C° 0,2 mm 1 m/S 668 mmHg 90%
    05:00 +22°C° 0,2 mm 1 m/S 668 mmHg 91%
    06:00 +23°C° 0,4 mm 1 m/S 669 mmHg 87%
    07:00 +24°C° 0,4 mm 2 m/S 669 mmHg 82%
    08:00 +25°C° 0,4 mm 3 m/S 670 mmHg 78%
    09:00 +26°C° 0,8 mm 3 m/S 670 mmHg 76%
    10:00 +26°C° 0,8 mm 3 m/S 669 mmHg 73%
    11:00 +27°C° 0,8 mm 3 m/S 669 mmHg 71%
    12:00 +27°C° 1,7 mm 3 m/S 669 mmHg 72%
    13:00 +27°C° 1,7 mm 2 m/S 668 mmHg 73%
    14:00 +27°C° 1,7 mm 2 m/S 668 mmHg 73%
    15:00 +26°C° 1,3 mm 2 m/S 667 mmHg 76%
    16:00 +26°C° 1,3 mm 2 m/S 667 mmHg 79%
    17:00 +25°C° 1,3 mm 1 m/S 667 mmHg 82%
    18:00 +24°C° 0,5 mm 1 m/S 667 mmHg 85%
    19:00 +24°C° 0,5 mm 1 m/S 667 mmHg 88%
    20:00 +23°C° 0,5 mm 1 m/S 668 mmHg 91%
    21:00 +23°C° 0,4 mm 1 m/S 668 mmHg 91%
    22:00 +21°C° 0,4 mm 0 m/S 668 mmHg 91%
    23:00 +20°C° 0,4 mm 0 m/S 668 mmHg 91%

    22 Dezember, Freitag

    Zeit Temperatur Niederschläge Wind Luftdruck Luftfeuchtigkeit
    00:00 +20°C° 0,1 mm 0 m/S 668 mmHg 92%
    01:00 +20°C° 0,1 mm 0 m/S 668 mmHg 92%
    02:00 +20°C° 0,1 mm 0 m/S 667 mmHg 92%
    03:00 +20°C° 0,1 mm 0 m/S 667 mmHg 92%
    04:00 +22°C° 0,1 mm 1 m/S 668 mmHg 93%
    05:00 +21°C° 0,1 mm 1 m/S 668 mmHg 93%
    06:00 +22°C° 0,2 mm 1 m/S 668 mmHg 90%
    07:00 +23°C° 0,2 mm 1 m/S 669 mmHg 87%
    08:00 +24°C° 0,2 mm 2 m/S 669 mmHg 84%
    09:00 +25°C° 0,3 mm 2 m/S 669 mmHg 79%
    10:00 +26°C° 0,3 mm 2 m/S 669 mmHg 74%
    11:00 +27°C° 0,3 mm 2 m/S 669 mmHg 68%
    12:00 +28°C° 0,5 mm 2 m/S 668 mmHg 66%
    13:00 +29°C° 0,5 mm 2 m/S 667 mmHg 63%
    14:00 +29°C° 0,5 mm 2 m/S 667 mmHg 60%
    15:00 +29°C° 0,6 mm 2 m/S 666 mmHg 62%
    16:00 +29°C° 0,6 mm 2 m/S 666 mmHg 64%
    17:00 +28°C° 0,6 mm 1 m/S 666 mmHg 66%
    18:00 +27°C° 0,1 mm 1 m/S 666 mmHg 70%
    19:00 +26°C° 0,1 mm 1 m/S 666 mmHg 74%
    20:00 +22°C° 0,1 mm 0 m/S 666 mmHg 78%
    21:00 +22°C° 0,4 mm 0 m/S 666 mmHg 79%
    22:00 +22°C° 0,4 mm 0 m/S 666 mmHg 80%
    23:00 +21°C° 0,4 mm 0 m/S 666 mmHg 82%
    Mehr zeigen